Wiscasset, ME

9:29 PM EST on February 11, 2016 (GMT -0500)
Wiscasset

Weather History for KIWI - December, 2012

Change the Weather History Date:

Friday, December 21, 2012

  Actual Average Record
Temperature  
Mean Temperature 42 °F -  
Max Temperature 52 °F 34 °F 52 °F (2012)
Min Temperature 32 °F 16 °F -2 °F (2004)
Degree Days  
Heating Degree Days 23    
Moisture  
Dew Point 40 °F    
Average Humidity 88    
Maximum Humidity 96    
Minimum Humidity 81    
Precipitation  
Precipitation 1.12 in - - ()
Sea Level Pressure  
Sea Level Pressure 29.49 in    
Wind  
Wind Speed 8 mph (SE)    
Max Wind Speed 21 mph    
Max Gust Speed 47 mph    
Visibility 6 miles    
Events Rain , Snow    
Averages and records for this station are not official NWS values.
T = Trace of Precipitation, MM = Missing Value Source: NWS Daily Summary

Daily Weather History Graph

Daily Weather History Graph

Search for Another Location

Airport or City:

Trip Planner

Search our weather history database for the weather conditions in past years. The results will help you decide how hot, cold, wet, or windy it might be!

Date:

Astronomy

Dec. 21, 2012 Rise Set
Actual Time 7:10 AM EST 4:04 PM EST
Civil Twilight 6:37 AM EST 4:37 PM EST
Nautical Twilight 6:00 AM EST 5:13 PM EST
Astronomical Twilight 5:25 AM EST 5:48 PM EST
Moon 11:57 AM EST (12/21) 12:45 AM EST (12/21)
Length of Visible Light 9h 59m
Length of Day
8h 53m
Waxing Gibbous, 64% of the Moon is Illuminated
Dec 21
Waxing Gibbous
Dec 28
Full
Jan 4
Last Quarter
Jan 11
New
Jan 18
First Quarter

Hourly Weather History & Observations

Time (EST) Temp. Windchill Dew Point Humidity Pressure Visibility Wind Dir Wind Speed Gust Speed Precip Events Conditions
12:53 AM 32.0 °F - 27.0 °F 82% 30.09 in 10.0 mi Calm Calm - N/A   Overcast
1:50 AM 32.0 °F - 28.4 °F 87% 30.08 in 10.0 mi Calm Calm - 0.00 in   Overcast
1:53 AM 32.0 °F 28.7 °F 28.0 °F 85% 30.08 in 10.0 mi Variable 3.5 mph - 0.00 in   Overcast
2:32 AM 32.0 °F 28.7 °F 28.4 °F 87% 30.04 in 1.8 mi NE 3.5 mph - 0.00 in Snow Light Snow
2:41 AM 32.0 °F 28.7 °F 28.4 °F 87% 30.04 in 3.0 mi Variable 3.5 mph - 0.00 in Snow Light Snow
2:53 AM 32.0 °F - 28.9 °F 88% 30.03 in 5.0 mi Calm Calm - 0.00 in   Overcast
3:27 AM 32.0 °F 28.7 °F 28.4 °F 87% 30.00 in 10.0 mi Variable 3.5 mph - 0.00 in   Overcast
3:53 AM 32.0 °F 26.4 °F 30.0 °F 92% 29.97 in 10.0 mi NE 5.8 mph - 0.00 in   Overcast
4:14 AM 33.8 °F 27.7 °F 30.2 °F 87% 29.95 in 9.0 mi Variable 6.9 mph - N/A   Overcast
4:53 AM 33.1 °F 30.0 °F 30.9 °F 92% 29.95 in 10.0 mi Variable 3.5 mph - N/A   Overcast
5:53 AM 34.0 °F - 32.0 °F 92% 29.92 in 5.0 mi Calm Calm - 0.01 in Rain Light Rain
6:31 AM 33.8 °F 29.6 °F 32.0 °F 93% 29.89 in 4.0 mi ENE 4.6 mph - 0.04 in Rain Light Rain
6:53 AM 34.0 °F - 33.1 °F 96% 29.87 in 7.0 mi Calm Calm - 0.06 in Rain Light Rain
7:53 AM 37.0 °F 32.4 °F 35.1 °F 93% 29.80 in 10.0 mi NE 5.8 mph - 0.03 in   Overcast
8:31 AM 41.0 °F 35.2 °F 35.6 °F 81% 29.77 in 10.0 mi East 9.2 mph 17.3 mph N/A   Overcast
8:53 AM 41.0 °F 33.9 °F 37.0 °F 86% 29.75 in 10.0 mi East 12.7 mph 19.6 mph N/A   Overcast
9:53 AM 44.1 °F 38.1 °F 39.0 °F 82% 29.76 in 7.0 mi ESE 11.5 mph 20.7 mph N/A   Overcast
10:21 AM 44.6 °F 39.2 °F 39.2 °F 81% 29.72 in 1.8 mi ESE 10.4 mph 18.4 mph N/A   Overcast
10:30 AM 44.6 °F 38.8 °F 41.0 °F 87% 29.71 in 2.0 mi ESE 11.5 mph 20.7 mph 0.00 in Rain Light Rain
10:53 AM 45.0 °F 39.3 °F 41.0 °F 86% 29.68 in 10.0 mi ESE 11.5 mph 24.2 mph 0.01 in   Overcast
11:53 AM 46.0 °F 39.9 °F 42.1 °F 86% 29.58 in 3.0 mi East 13.8 mph 25.3 mph 0.05 in Rain Light Rain
12:46 PM 46.4 °F 40.1 °F 42.8 °F 87% 29.50 in 3.0 mi East 15.0 mph 28.8 mph 0.04 in Rain Light Rain
12:53 PM 46.9 °F - 43.0 °F 86% 29.50 in 3.0 mi East 18.4 mph 31.1 mph 0.05 in Rain Light Rain
1:00 PM 46.4 °F 38.7 °F 44.6 °F 93% 29.49 in 5.0 mi East 20.7 mph 33.4 mph 0.01 in Rain Light Rain
1:35 PM 48.2 °F - 44.6 °F 87% 29.43 in 2.5 mi East 20.7 mph 33.4 mph 0.07 in Rain Rain
1:43 PM 48.2 °F - 44.6 °F 87% 29.43 in 2.0 mi ESE 16.1 mph 29.9 mph 0.10 in Rain Rain
1:53 PM 48.0 °F - 45.0 °F 89% 29.42 in 2.0 mi East 16.1 mph 34.5 mph 0.14 in Rain Rain
2:28 PM 48.2 °F - 46.4 °F 93% 29.36 in 4.0 mi East 16.1 mph 28.8 mph 0.10 in Rain Light Rain
2:42 PM 48.2 °F - 46.4 °F 93% 29.35 in 2.0 mi ESE 17.3 mph 39.1 mph 0.13 in Rain Rain
2:53 PM 48.9 °F - 46.0 °F 90% 29.33 in 2.5 mi East 18.4 mph 36.8 mph 0.15 in Rain Light Rain
3:20 PM 50.0 °F - 46.4 °F 87% 29.29 in 1.5 mi ESE 18.4 mph 42.6 mph 0.08 in Rain Rain
3:29 PM 50.0 °F - 46.4 °F 87% 29.28 in 1.8 mi ESE 19.6 mph 41.4 mph 0.09 in Rain Light Rain
3:37 PM 50.0 °F - 46.4 °F 87% 29.26 in 2.5 mi ESE 19.6 mph 42.6 mph 0.11 in Rain Rain
3:53 PM 50.0 °F - 46.9 °F 89% 29.25 in 2.0 mi ESE 20.7 mph 38.0 mph 0.14 in Rain Light Rain
4:06 PM 50.0 °F - 46.4 °F 87% 29.23 in 3.0 mi ESE 20.7 mph 39.1 mph 0.02 in Rain Light Rain
4:25 PM 51.8 °F - 46.4 °F 82% 29.20 in 2.0 mi ESE 17.3 mph 40.3 mph 0.06 in Rain Rain
4:53 PM 51.1 °F - 48.0 °F 89% 29.18 in 3.0 mi ESE 19.6 mph 47.2 mph 0.13 in Rain Light Rain
5:16 PM 51.8 °F - 48.2 °F 88% 29.16 in 2.0 mi ESE 20.7 mph 38.0 mph 0.03 in Rain Rain
5:27 PM 51.8 °F - 48.2 °F 88% 29.14 in 1.8 mi ESE 20.7 mph 38.0 mph 0.06 in Rain Rain
5:51 PM 52.0 °F - 48.9 °F 89% 29.13 in 3.0 mi ESE 19.6 mph 40.3 mph 0.11 in Rain Light Rain
5:59 PM 48.2 °F - 46.4 °F 93% 29.19 in 1.8 mi SSW 17.3 mph 39.1 mph 0.10 in Rain Rain
6:05 PM 48.2 °F - 44.6 °F 87% 29.18 in 1.2 mi South 8.1 mph 35.7 mph 0.17 in Rain Heavy Rain
6:07 PM 48.2 °F - 44.6 °F 87% 29.18 in 1.5 mi South 8.1 mph 29.9 mph 0.18 in Rain Rain
6:10 PM 46.4 °F 40.7 °F 44.6 °F 93% 29.18 in 2.0 mi SSW 12.7 mph 21.9 mph 0.19 in Rain Rain
6:22 PM 46.4 °F 42.9 °F 44.6 °F 93% 29.18 in 3.0 mi South 6.9 mph 16.1 mph 0.22 in Rain Rain
6:36 PM 46.4 °F 43.5 °F 44.6 °F 93% 29.16 in 4.0 mi Variable 5.8 mph - 0.23 in Rain Light Rain
6:53 PM 46.9 °F - 44.1 °F 90% 29.16 in 8.0 mi ESE 4.6 mph - 0.24 in Rain Light Rain
7:53 PM 46.9 °F - 44.1 °F 90% 29.15 in 10.0 mi SE 3.5 mph - 0.00 in   Overcast
8:32 PM 48.2 °F - 44.6 °F 87% 29.15 in 9.0 mi South 8.1 mph - N/A   Overcast
8:40 PM 48.2 °F - 42.8 °F 82% 29.15 in 10.0 mi South 8.1 mph 16.1 mph N/A   Overcast
8:53 PM 46.9 °F - 42.1 °F 83% 29.16 in 10.0 mi SSW 10.4 mph 16.1 mph N/A   Overcast
9:53 PM 45.0 °F 41.8 °F 39.9 °F 82% 29.16 in 10.0 mi South 5.8 mph - N/A   Overcast
10:15 PM 44.6 °F 41.4 °F 41.0 °F 87% 29.16 in 10.0 mi South 5.8 mph - N/A   Overcast
10:53 PM 45.0 °F 41.2 °F 39.9 °F 82% 29.16 in 10.0 mi SSW 6.9 mph - N/A   Overcast
11:02 PM 44.6 °F 41.4 °F 39.2 °F 81% 29.15 in 10.0 mi South 5.8 mph - N/A   Overcast
11:53 PM 44.1 °F 39.0 °F 39.0 °F 82% 29.15 in 10.0 mi SW 9.2 mph - N/A   Overcast